Location: Degersen
(52.2871°N, 9.5716°E)
Time: 23:34:57
(UTC+00:00)

Cosmos 1656 Rocket - Pass Details

Date: 20 January 2026
Orbit: 794 x 843 km, 71.1° (Epoch: 18 February)

Event Time Altitude Azimuth Distance (km) Brightness Sun altitude
Rises 05:15:17 0° 197° (SSW) 3,389 6.8 -18.4°
Reaches altitude 10° 05:17:44 10° 194° (SSW) 2,458 6.1 -18.0°
Maximum altitude 05:23:18 63° 115° (ESE) 934 4.2 -17.2°
Drops below altitude 10° 05:28:52 10° 35° (NE) 2,457 6.4 -16.4°
Sets 05:31:19 0° 33° (NNE) 3,389 7.1 -16.0°
